TimeEDT,TemperatureF,Dew PointF,Humidity,Sea Level PressureIn,VisibilityMPH,Wind Direction,Wind SpeedMPH,Gust SpeedMPH,PrecipitationIn,Events,Conditions,WindDirDegrees,DateUTC
12:56 AM,66.0,64.0,93,29.79,10.0,South,6.9,-,N/A,,Overcast,170,2012-10-20 04:56:00
1:08 AM,66.2,62.6,88,29.74,10.0,SSE,9.2,-,N/A,,Overcast,150,2012-10-20 05:08:00
1:56 AM,66.0,64.0,93,29.76,7.0,ESE,9.2,-,0.00,,Overcast,120,2012-10-20 05:56:00
2:26 AM,66.2,64.4,94,29.70,8.0,SE,3.5,-,0.01,Rain,Light Rain,140,2012-10-20 06:26:00
2:40 AM,64.4,64.4,100,29.70,1.5,WNW,3.5,-,0.13,Rain,Heavy Rain,290,2012-10-20 06:40:00
2:49 AM,64.4,64.4,100,29.70,0.8,SE,4.6,-,0.38,Rain,Heavy Rain,140,2012-10-20 06:49:00
2:56 AM,64.9,64.9,100,29.74,1.2,SE,5.8,-,0.43,Rain,Rain,140,2012-10-20 06:56:00
3:02 AM,66.2,64.4,94,29.69,3.0,SE,9.2,-,0.04,Rain,Rain,140,2012-10-20 07:02:00
3:09 AM,66.2,64.4,94,29.69,2.5,SE,9.2,-,0.07,Rain,Rain,140,2012-10-20 07:09:00
3:11 AM,66.2,64.4,94,29.69,3.0,SE,10.4,-,0.07,Rain,Rain,140,2012-10-20 07:11:00
3:48 AM,66.2,64.4,94,29.71,2.0,SSE,8.1,-,0.27,Rain,Heavy Rain,150,2012-10-20 07:48:00
3:56 AM,64.9,64.0,97,29.75,2.0,SSE,9.2,-,0.35,Rain,Rain,160,2012-10-20 07:56:00
4:05 AM,66.2,64.4,94,29.71,1.8,South,9.2,-,0.12,Rain,Heavy Rain,170,2012-10-20 08:05:00
4:20 AM,66.2,64.4,94,29.72,2.0,South,11.5,-,0.28,Rain,Rain,190,2012-10-20 08:20:00
4:28 AM,66.2,64.4,94,29.72,5.0,SSE,9.2,-,0.30,Rain,Rain,160,2012-10-20 08:28:00
4:56 AM,64.9,64.0,97,29.73,5.0,SSE,3.5,-,0.39,Rain,Rain,150,2012-10-20 08:56:00
5:56 AM,64.0,63.0,96,29.71,10.0,SE,3.5,-,0.01,,Partly Cloudy,130,2012-10-20 09:56:00
6:42 AM,62.6,60.8,94,29.66,1.8,Calm,Calm,-,N/A,,Mostly Cloudy,0,2012-10-20 10:42:00
6:48 AM,62.6,62.6,100,29.66,10.0,Calm,Calm,-,N/A,,Mostly Cloudy,0,2012-10-20 10:48:00
6:56 AM,63.0,62.1,97,29.70,10.0,Calm,Calm,-,N/A,,Overcast,0,2012-10-20 10:56:00
7:56 AM,64.9,64.0,97,29.70,10.0,SSE,6.9,-,N/A,,Overcast,160,2012-10-20 11:56:00
8:35 AM,64.4,62.6,94,29.67,10.0,SSE,6.9,-,N/A,,Overcast,160,2012-10-20 12:35:00
8:56 AM,64.9,64.0,97,29.70,10.0,SSE,6.9,-,N/A,,Overcast,150,2012-10-20 12:56:00
9:03 AM,64.4,64.4,100,29.66,10.0,SSE,8.1,-,N/A,,Overcast,150,2012-10-20 13:03:00
9:30 AM,66.2,64.4,94,29.67,10.0,Calm,Calm,-,N/A,,Overcast,0,2012-10-20 13:30:00
9:56 AM,66.9,64.0,90,29.69,8.0,Calm,Calm,-,0.00,,Overcast,0,2012-10-20 13:56:00
10:56 AM,66.9,63.0,87,29.70,10.0,SW,6.9,-,N/A,,Overcast,220,2012-10-20 14:56:00
11:03 AM,68.0,64.4,88,29.67,10.0,SSW,8.1,-,N/A,,Overcast,210,2012-10-20 15:03:00
11:33 AM,69.8,62.6,78,29.65,10.0,SSW,6.9,-,N/A,,Partly Cloudy,210,2012-10-20 15:33:00
11:56 AM,69.8,62.6,78,29.65,10.0,SSW,10.4,-,N/A,,Mostly Cloudy,200,2012-10-20 15:56:00
12:56 PM,71.1,57.9,63,29.66,10.0,SSW,10.4,-,N/A,,Scattered Clouds,200,2012-10-20 16:56:00
1:56 PM,70.0,57.0,63,29.64,10.0,WSW,6.9,-,N/A,,Scattered Clouds,250,2012-10-20 17:56:00
2:56 PM,73.9,48.9,41,29.64,10.0,SSW,15.0,23.0,N/A,,Partly Cloudy,210,2012-10-20 18:56:00
3:56 PM,73.0,48.0,41,29.63,10.0,SSW,13.8,-,N/A,,Partly Cloudy,200,2012-10-20 19:56:00
4:56 PM,71.1,46.0,41,29.64,10.0,SW,8.1,-,N/A,,Clear,220,2012-10-20 20:56:00
5:56 PM,68.0,45.0,43,29.65,10.0,SW,3.5,-,N/A,,Clear,220,2012-10-20 21:56:00
6:56 PM,60.1,46.0,60,29.67,10.0,SSW,4.6,-,N/A,,Clear,210,2012-10-20 22:56:00
7:56 PM,61.0,48.0,62,29.68,10.0,South,9.2,-,N/A,,Clear,190,2012-10-20 23:56:00
8:56 PM,57.9,48.9,72,29.71,10.0,SSW,9.2,-,N/A,,Partly Cloudy,210,2012-10-21 00:56:00
9:56 PM,57.9,46.9,67,29.73,10.0,SW,6.9,-,N/A,,Partly Cloudy,230,2012-10-21 01:56:00
10:56 PM,55.9,44.1,64,29.76,10.0,West,9.2,-,N/A,,Clear,280,2012-10-21 02:56:00
11:56 PM,54.0,42.1,64,29.77,10.0,West,6.9,-,N/A,,Partly Cloudy,270,2012-10-21 03:56:00